This demonstration page uses our WeatherBlox Daily Observations layout. Learn more.

Left ArrowRight Arrow

41.55636, -103.73856

Hourly Observations for April 5, 2018

Temp ( °F °C ) Dew Point ( °F °C ) Humidity (%) Winds ( mph kmh ) Pressure ( in mb ) Visibility ( mi km ) Precip ( " mm )
12:58 am 00:58 Clear 34 1.1 22 -5.6 61 61 N 5 7 29.98 1015 10 16 N/A
1:58 am 01:58 Clear 34 1.1 21 -6.1 59 59 SE 5 7 29.97 1015 10 16 N/A
2:58 am 02:58 Clear 31 -0.4 21 -6.3 65 65 N N/A 29.98 1015 10 16 N/A
3:58 am 03:58 Clear 29 -1.8 23 -5.2 78 78 W 13 20 29.99 1016 10 16 N/A
4:58 am 04:58 Clear 35 1.7 26 -3.5 69 69 WNW 15 24 29.95 1014 10 16 N/A
5:58 am 05:58 Clear 37 2.5 26 -3.4 65 65 WNW 16 26 29.95 1014 10 16 N/A
6:58 am 06:58 Sunny 35 1.6 26 -3.5 69 69 W 17 28 29.95 1014 10 16 N/A
7:58 am 07:58 Sunny 45 7.2 27 -2.9 49 49 W 16 26 29.93 1014 10 16 N/A
8:58 am 08:58 Sunny 50 10 26 -3.2 40 40 WNW 14 22 29.94 1014 10 16 N/A
9:58 am 09:58 Sunny 55 13 27 -3 33 33 WNW 12 19 29.93 1014 10 16 N/A
10:58 am 10:58 Sunny 60 15.5 26 -3.4 27 27 WNW 25 41 29.91 1013 10 16 N/A
11:58 am 11:58 Mostly Sunny 60 15.6 29 -1.7 31 31 N 20 31 29.92 1013 10 16 N/A
12:58 pm 12:58 Sunny 59 14.8 28 -2.1 31 31 NNW 21 33 29.94 1014 10 16 N/A
1:58 pm 13:58 Sunny 57 13.9 28 -2 34 34 N 20 31 29.94 1014 10 16 N/A
2:58 pm 14:58 Sunny 57 13.8 28 -2.1 33 33 N 16 26 29.95 1014 10 16 N/A
3:58 pm 15:58 Mostly Sunny 54 12.4 27 -2.6 35 35 NE 15 24 29.98 1015 10 16 N/A
4:58 pm 16:58 Mostly Cloudy 52 10.9 29 -1.8 41 41 ENE 16 26 29.98 1015 10 16 N/A
5:58 pm 17:58 Mostly Sunny 49 9.4 29 -1.7 46 46 NE 16 26 29.99 1016 10 16 N/A
6:58 pm 18:58 Sunny 46 7.8 29 -1.7 51 51 ENE 16 26 29.98 1015 10 16 N/A
7:58 pm 19:58 Clear 40 4.6 28 -2.2 62 62 E 12 19 29.98 1015 10 16 N/A
8:58 pm 20:58 Mostly Cloudy 38 3.2 29 -1.8 70 70 E 10 17 29.99 1016 10 16 N/A
9:58 pm 21:58 Mostly Cloudy 36 2.2 30 -1.2 78 78 ENE 9 15 29.99 1016 10 16 N/A
10:58 pm 22:58 Cloudy 36 2 31 -0.8 82 82 E 8 13 29.97 1015 10 16 N/A
11:58 pm 23:58 Mostly Cloudy 34 1.3 30 -1 85 85 ESE 10 17 29.98 1015 10 16 N/A

Powered by AerisWeather